Погода в Красноперекопске

Россия / Республика Крым     45°57′13″N   33°47′31″E
темп.,
°C
ветер,
м/с
пор.,
м/с
влажн.,
%
обл.,
%
осадки,
мм/ч
давл.,
гПа
погр.,
м
15 апреля, чт
чт1500:00+9ююз3487100 0.1 101444
03:00+9ю2484100 0.6 1013155
06:00+9ююз5991100 0.1 1013376
09:00+9ююз797765 0.1 1014496
12:00+10юз9107199 0.1 1014806
15:00+9зюз9118699 0.1 1015673
18:00+8зюз8118295 0.1 1016843
21:00+8юз71084100 0.2 1016774
16 апреля, пт
пт1600:00+8юз7108499 0.1 1016723
03:00+7юз71288100 0.1 1016609
06:00+8ююз61085100 0.0 1016442
09:00+9ююз7978100 0.1 1017400
12:00+11зюз686499 0.3 1017780
15:00+8з898143 0.4 1018430
18:00+7з810805 0.0 1019393
21:00+7з69805 0.0 1020449
17 апреля, сб
сб1700:00+7з588217 0.0 1021422
03:00+7з578474 0.0 1021431
06:00+6сз248295 0.0 1022231
09:00+8з217543 0.0 1023384
12:00+9зсз227120 0.0 1023587
15:00+10сз216227 0.0 1022697
18:00+11всв33635 0.0 1022318
21:00+9вюв5873100 0.0 1022150
18 апреля, вс
вс1800:00+8в4973100 0.0 1021227
03:00+8в51076100 0.0 1020358
06:00+8в6117996 0.0 1020480
09:00+9в7117687 0.0 1020560
12:00+10в81070100 0.3 1020575
15:00+9в71175100 0.6 1019391
18:00+9в71274100 0.0 1019378
21:00+10в71472100 0.0 1018319
19 апреля, пн
пн1900:00+9в61380100 0.0 1017284
03:00+8в5109384 0.0 1016186
06:00+9в51195100 0.0 1015205
09:00+10в61191100 0.0 1014212
12:00+15в6877100 0.0 1013286
15:00+12в7994100 2.2 1011120
18:00+11в111891100 0.2 1007303
21:00+12в101988100 0.6 1004343